Location: *
(45.9500°N, 9.0833°E)
Time: 07:31:32
(UTC+00:00)

Okean-O - Pass Details

Date: 03 March 2021
Orbit: 639 x 640 km, 98.2° (Epoch: 18 April)

Event Time Altitude Azimuth Distance (km) Brightness Sun altitude
Rises 18:21:08 0° 174° (S) 2,932 5.9 -12.6°
Reaches altitude 10° 18:23:21 10° 178° (S) 2,028 5.1 -13.0°
Maximum altitude 18:27:43 61° 259° (W) 731 3.2 -13.7°
Drops below altitude 10° 18:32:07 10° 340° (NNW) 2,044 5.6 -14.5°
Sets 18:34:22 0° 344° (NNW) 2,958 6.4 -14.9°
